Indianapolis, IN

1:04 PM EDT on July 28, 2017 (GMT -0400)
Indianapolis International

Weather History for KIND - October, 2013

Change the Weather History Date:

Wednesday, October 9, 2013

  Actual Average Record
Temperature  
Mean Temperature 60 °F 57 °F  
Max Temperature 72 °F 68 °F 88 °F (1939)
Min Temperature 48 °F 47 °F 30 °F (1989)
Degree Days  
Heating Degree Days 5 9  
Month to date heating degree days 33 67  
Since 1 July heating degree days 67 142  
Cooling Degree Days 0 1  
Month to date cooling degree days 31 10  
Year to date cooling degree days 1160 1059  
Growing Degree Days 10 (Base 50)    
Moisture  
Dew Point 46 °F    
Average Humidity 65    
Maximum Humidity 89    
Minimum Humidity 41    
Precipitation  
Precipitation 0.00 in 0.11 in 1.25 in (1993)
Month to date precipitation 2.57 0.95  
Year to date precipitation 35.36 33.40  
Snow  
Snow 0.00 in 0.10 in T in (1925)
Month to date snowfall 0.0 0.1  
Since 1 July snowfall 0.0 0.1  
Since 1 September snowfall 0.0 0.1  
Snow Depth 0.00 in    
Sea Level Pressure  
Sea Level Pressure 30.18 in    
Wind  
Wind Speed 4 mph (ESE)    
Max Wind Speed 10 mph    
Max Gust Speed 16 mph    
Visibility 10 miles    
Events      
T = Trace of Precipitation, MM = Missing Value Source: NWS Daily Summary

Daily Weather History Graph

Daily Weather History Graph

Search for Another Location

Airport or City:

Trip Planner

Search our weather history database for the weather conditions in past years. The results will help you decide how hot, cold, wet, or windy it might be!

Date:

Astronomy

Oct. 09, 2013 Rise Set
Actual Time 7:49 AM EDT 7:14 PM EDT
Civil Twilight 7:22 AM EDT 7:41 PM EDT
Nautical Twilight 6:51 AM EDT 8:12 PM EDT
Astronomical Twilight 6:19 AM EDT 8:43 PM EDT
Moon 12:43 PM EDT (10/9) 10:49 PM EDT (10/9)
Length of Visible Light 12h 19m
Length of Day
11h 25m
Waxing Crescent, 25% of the Moon is Illuminated
Oct 9
Waxing Crescent
Oct 11
First Quarter
Oct 18
Full
Oct 26
Last Quarter
Nov 3
New

Hourly Weather History & Observations

Time (EDT) Temp. Dew Point Humidity Pressure Visibility Wind Dir Wind Speed Gust Speed Precip Events Conditions
12:54 AM 52.9 °F 44.1 °F 72% 30.19 in 10.0 mi East 5.8 mph - N/A   Clear
1:54 AM 53.2 °F 44.1 °F 71% 30.19 in 10.0 mi ESE 5.8 mph - N/A   Clear
2:54 AM 52.0 °F 43.9 °F 74% 30.19 in 10.0 mi ESE 4.6 mph - N/A   Clear
3:54 AM 50.7 °F 43.5 °F 76% 30.18 in 10.0 mi East 4.6 mph - N/A   Clear
4:54 AM 49.5 °F 43.5 °F 80% 30.18 in 10.0 mi East 3.5 mph - N/A   Clear
5:54 AM 48.9 °F 43.7 °F 82% 30.19 in 10.0 mi East 4.6 mph - N/A   Clear
6:54 AM 48.2 °F 44.8 °F 88% 30.20 in 10.0 mi Calm Calm - N/A   Clear
7:54 AM 48.9 °F 45.7 °F 89% 30.21 in 10.0 mi NE 3.5 mph - N/A   Partly Cloudy
8:54 AM 50.0 °F 44.1 °F 80% 30.23 in 10.0 mi NE 3.5 mph - N/A   Partly Cloudy
9:54 AM 55.0 °F 46.0 °F 72% 30.24 in 10.0 mi East 3.5 mph - N/A   Clear
10:54 AM 59.0 °F 46.9 °F 64% 30.24 in 10.0 mi SE 3.5 mph - N/A   Clear
11:54 AM 64.0 °F 48.0 °F 56% 30.23 in 10.0 mi Variable 3.5 mph - N/A   Clear
12:54 PM 66.0 °F 48.0 °F 52% 30.22 in 10.0 mi Variable 4.6 mph - N/A   Clear
1:54 PM 69.1 °F 48.9 °F 49% 30.20 in 10.0 mi East 8.1 mph - N/A   Clear
2:54 PM 70.0 °F 48.0 °F 46% 30.17 in 10.0 mi ESE 5.8 mph - N/A   Clear
3:54 PM 71.1 °F 48.0 °F 44% 30.16 in 10.0 mi SE 6.9 mph - N/A   Clear
4:54 PM 72.0 °F 46.9 °F 41% 30.15 in 10.0 mi SSE 5.8 mph - N/A   Clear
5:54 PM 71.1 °F 48.0 °F 44% 30.15 in 10.0 mi South 4.6 mph - N/A   Clear
6:54 PM 70.0 °F 46.0 °F 42% 30.14 in 10.0 mi SSE 3.5 mph - N/A   Clear
7:54 PM 64.9 °F 46.0 °F 50% 30.15 in 10.0 mi SSW 3.5 mph - N/A   Clear
8:54 PM 62.1 °F 48.0 °F 60% 30.15 in 10.0 mi SW 3.5 mph - N/A   Clear
9:54 PM 62.1 °F 48.9 °F 62% 30.15 in 10.0 mi East 3.5 mph - N/A   Clear
10:54 PM 57.9 °F 48.9 °F 72% 30.16 in 10.0 mi Calm Calm - N/A   Clear
11:54 PM 59.0 °F 46.9 °F 64% 30.15 in 10.0 mi SE 4.6 mph - N/A   Clear